Flag for Germany Weather past 2 weeks in Königs Wusterhausen, Brandenburg, Germany

Now
48 °F

Rain. Partly cloudy.


Feels Like: 41 °F
Forecast: 45 / 57 °F
Wind: 21 mph from West

Location: Berlin-Schoenefeld

Current Time: Oct 22, 2014 at 3:49:25 AM

Latest Report: Oct 22, 2014 at 3:20 AM


Visibility: N/A

Pressure: 29.56 "Hg

Humidity: 94%

Dew point: 46 °F

Location of Königs WusterhausenLocation

Historic Weather in Königs Wusterhausen — Graph

°F

Königs Wusterhausen temperature yesterday

Maximum temperature yesterday: 59 °F (at 1:20 PM)
Minimum temperature yesterday: 52 °F (at 1:50 AM)
Average temperature yesterday: 54 °F

Past Weeks' High & Low Weather Summary

 TemperatureHumidityPressure
High72 °F (Oct 19, 3:20 PM)100% (Oct 10, 6:50 AM)30.24 "Hg (Oct 10, 6:50 AM)
Low46 °F (Oct 16, 7:50 AM)60% (Oct 8, 1:50 PM)29.45 "Hg (Oct 21, 10:50 PM)
Average57 °F87%29.86 "Hg
* Reported Oct 7 2:20 AM — Oct 22 2:50 AM, Königs Wusterhausen, Weather by CustomWeather, © 2014

Note: Actual official high and low records may vary slightly from our data, if they occured in-between our weather recording intervals... More about our weather records

Advertising

Königs Wusterhausen weather history for previous 24 hours

 ConditionsComfort  
Time TempWeatherWind HumidityBarometerVisibility
2:50 AM
Oct 22
50 °FLight rain. Partly cloudy.16 mph94%29.53 "HgN/A
2:20 AM50 °FLight rain. Partly cloudy.16 mph94%29.53 "HgN/A
1:50 AM52 °FLight rain. Partly cloudy.15 mph88%29.50 "HgN/A
1:20 AM52 °FRain. Partly cloudy.15 mph94%29.50 "HgN/A
12:50 AM52 °FLight rain. Partly cloudy.16 mph94%29.47 "HgN/A
12:20 AM54 °FPartly cloudy.9 mph88%29.47 "HgN/A
11:50 PM
Oct 21
54 °FPassing clouds.9 mph88%29.47 "HgN/A
11:20 PM52 °FPassing clouds.7 mph94%29.45 "HgN/A
10:50 PM54 °FLight rain. Passing clouds.8 mph88%29.45 "HgN/A
10:20 PM54 °FLight rain. Passing clouds.8 mph88%29.47 "HgN/A
9:50 PM54 °FPassing clouds.8 mph82%29.47 "HgN/A
9:20 PM54 °FLight rain. Partly cloudy.10 mph82%29.47 "HgN/A
8:50 PM54 °FPassing clouds.10 mph82%29.47 "HgN/A
8:20 PM54 °FPassing clouds.10 mph82%29.50 "HgN/A
7:50 PM54 °FLight rain. Overcast.9 mph82%29.50 "HgN/A
7:20 PM54 °FLight rain. Overcast.9 mph82%29.53 "HgN/A
6:50 PM55 °FSunny.9 mph77%29.53 "Hg10 mi
6:20 PM55 °FOvercast.9 mph77%29.53 "HgN/A
5:50 PM55 °FPartly sunny.13 mph77%29.56 "HgN/A
5:20 PM57 °FLight rain. Partly sunny.10 mph72%29.56 "HgN/A
4:50 PM57 °FBroken clouds.9 mph72%29.59 "HgN/A
4:20 PM57 °FLight rain. Partly sunny.13 mph72%29.62 "HgN/A
3:50 PM57 °FPartly sunny.13 mph72%29.62 "HgN/A
3:20 PM57 °FPartly sunny.10 mph77%29.62 "HgN/A
2:50 PM57 °FBroken clouds.14 mph72%29.65 "HgN/A
2:20 PM57 °FBroken clouds.12 mph77%29.68 "HgN/A
1:50 PM57 °FScattered clouds.13 mph77%29.68 "HgN/A
1:20 PM59 °FBroken clouds.14 mph77%29.71 "HgN/A
12:50 PM57 °FBroken clouds.12 mph77%29.71 "HgN/A
12:20 PM57 °FBroken clouds.13 mph82%29.74 "HgN/A
11:50 AM57 °FBroken clouds.12 mph82%29.74 "HgN/A
11:20 AM57 °FScattered clouds.12 mph82%29.77 "HgN/A
10:50 AM55 °FSunny.12 mph82%29.77 "Hg10 mi
10:20 AM55 °FSunny.12 mph82%29.77 "Hg10 mi
9:50 AM55 °FSunny.9 mph88%29.77 "Hg10 mi
9:20 AM52 °FPartly sunny.7 mph94%29.80 "HgN/A
8:50 AM52 °FBroken clouds.8 mph94%29.80 "HgN/A
8:20 AM52 °FPassing clouds.9 mph94%29.80 "HgN/A
7:50 AM52 °FPassing clouds.9 mph94%29.80 "HgN/A
7:20 AM52 °FPartly cloudy.10 mph94%29.80 "HgN/A
6:50 AM52 °FPartly cloudy.9 mph94%29.80 "HgN/A
6:20 AM52 °FPassing clouds.9 mph94%29.83 "HgN/A
5:50 AM52 °FPartly cloudy.7 mph100%29.83 "Hg6 mi
5:20 AM52 °FLight rain. Passing clouds.6 mph100%29.83 "HgN/A
4:50 AM52 °FLight rain. Passing clouds.7 mph100%29.83 "HgN/A
4:20 AM52 °FLight rain. Passing clouds.8 mph100%29.83 "HgN/A
3:50 AM52 °FClear.7 mph100%29.83 "Hg10 mi
3:20 AM52 °FLight rain. Partly cloudy.6 mph100%29.86 "HgN/A
Weather by CustomWeather, © 2014

See weather overviewHow to use our weather pages